TimeCDT,TemperatureF,Dew PointF,Humidity,Sea Level PressureIn,VisibilityMPH,Wind Direction,Wind SpeedMPH,Gust SpeedMPH,PrecipitationIn,Events,Conditions,WindDirDegrees,DateUTC
12:53 AM,46.9,35.1,63,29.89,10.0,South,11.5,-,N/A,,Clear,190,2012-10-09 05:53:00
1:53 AM,46.9,35.1,63,29.89,10.0,SSW,12.7,-,N/A,,Clear,200,2012-10-09 06:53:00
4:53 AM,45.0,36.0,71,29.89,10.0,SSW,9.2,-,N/A,,Clear,200,2012-10-09 09:53:00
5:53 AM,46.9,36.0,66,29.87,10.0,South,12.7,-,N/A,,Clear,190,2012-10-09 10:53:00
6:53 AM,46.0,36.0,68,29.88,10.0,SSW,11.5,-,N/A,,Clear,200,2012-10-09 11:53:00
7:53 AM,46.9,36.0,66,29.87,10.0,SSW,13.8,-,N/A,,Clear,200,2012-10-09 12:53:00
8:53 AM,48.0,37.0,66,29.90,10.0,SW,8.1,-,N/A,,Clear,230,2012-10-09 13:53:00
9:53 AM,50.0,37.9,63,29.90,10.0,SSW,6.9,-,N/A,,Clear,210,2012-10-09 14:53:00
10:53 AM,55.0,39.0,55,29.91,10.0,WSW,10.4,-,N/A,,Clear,250,2012-10-09 15:53:00
11:53 AM,55.0,39.0,55,29.90,10.0,West,10.4,-,N/A,,Clear,270,2012-10-09 16:53:00
12:53 PM,55.9,37.9,51,29.91,10.0,WNW,9.2,-,N/A,,Clear,300,2012-10-09 17:53:00
1:53 PM,60.1,39.9,47,29.92,10.0,NW,8.1,-,N/A,,Clear,310,2012-10-09 18:53:00
2:53 PM,57.0,42.1,57,29.93,10.0,NNW,13.8,21.9,N/A,,Overcast,340,2012-10-09 19:53:00
3:53 PM,54.0,39.9,59,29.96,10.0,NNW,17.3,23.0,0.00,Rain,Light Rain,340,2012-10-09 20:53:00
4:53 PM,51.1,34.0,52,29.98,10.0,NNW,15.0,18.4,0.00,,Overcast,340,2012-10-09 21:53:00
5:53 PM,50.0,32.0,50,29.99,10.0,NNW,9.2,-,N/A,,Overcast,340,2012-10-09 22:53:00
6:53 PM,48.9,33.1,54,30.01,10.0,NNW,13.8,19.6,N/A,,Mostly Cloudy,330,2012-10-09 23:53:00
7:53 PM,46.0,25.0,44,30.04,10.0,NW,4.6,-,N/A,,Clear,310,2012-10-10 00:53:00
8:53 PM,41.0,26.1,55,30.05,10.0,West,5.8,-,N/A,,Clear,270,2012-10-10 01:53:00
9:53 PM,39.0,27.0,62,30.09,10.0,NW,8.1,-,N/A,,Clear,310,2012-10-10 02:53:00
10:53 PM,39.9,27.0,60,30.12,10.0,NNW,6.9,-,N/A,,Clear,340,2012-10-10 03:53:00
11:53 PM,36.0,27.0,70,30.13,10.0,WNW,4.6,-,N/A,,Clear,290,2012-10-10 04:53:00